Regional Weather Roundup
Issued by NWS

Home | Current Version | Previous Version | Text Only | Print | Product List | Glossary On
Versions: 1 2 3 4 5 6 7 8 9 10 11 12 13 14 15 16 17 18 19 20 21 22 23 24 25 26 27 28 29 30 31 32 33 34 35 36 37 38 39 40 41 42 43 44 45 46 47 48 49 50
913
ASUS43 KDTX 101310
RWRMI
MICHIGAN HOURLY REGIONAL WEATHER ROUNDUP
NATIONAL WEATHER SERVICE DETROIT/PONTIAC MI
800 AM EST SAT DEC 10 2016

NOTE: "FAIR" INDICATES FEW OR NO CLOUDS BELOW 12,000 FEET WITH NO
SIGNIFICANT WEATHER AND/OR OBSTRUCTION TO VISIBILITY.

MIZ047>049-052>055-059>063-066>070-074>076-081>083-101400-
SOUTHEAST LOWER MICHIGAN

CITY           SKY/WX    TMP DP  RH WIND       PRES   REMARKS
ADRIAN         PTCLDY    19  16  88 W10       30.47R WCI   7
ALMA           CLOUDY    20  16  82 SW5       30.41S WCI  14
ANN ARBOR      LGT SNOW  21  18  88 SW10      30.44S FOG     WCI  10
BAD AXE        FLURRIES  24  16  71 W10       30.37S WCI  13
CARO           CLEAR     18  13  84 SW6       30.40R WCI   9
DETROIT CITY   PTCLDY    23  17  78 W8        30.44R WCI  14
DETROIT        CLOUDY    23  18  81 W13       30.46R WCI  11
FLINT          MOCLDY    20  15  81 W6        30.42R WCI  12
GROSSE ILE     CLOUDY    23  18  81 W9        30.45S WCI  13
HILLSDALE      LGT SNOW  18  14  86 SW6       30.43S WCI   9
HOWELL         FLURRIES  22  18  85 W7        30.42R WCI  13

CITY           SKY/WX    TMP DP  RH WIND       PRES   REMARKS
JACKSON        CLOUDY    18  14  84 SW10      30.43S WCI   6
LAMBERTVILLE   PTCLDY    23  17  77 W6        30.48S WCI  15
LANSING        LGT SNOW  21  16  81 SW6       30.43S WCI  13
LAPEER         NOT AVBL
MASON          LGT SNOW  21  19  92 SW5       30.43S WCI  15
MONROE         CLOUDY    23  19  83 W8        30.46S WCI  14
MT. CLEMENS    PTCLDY    23  15  70 W8        30.41R WCI  14
PONTIAC        MOCLDY    21  16  81 W8        30.40R WCI  11
PORT HOPE        N/A     23  14  68 W8G18     30.35R WCI  14
PORT HURON     CLEAR     21  16  79 CALM      30.41S
TRI CITIES     CLEAR     19  13  77 SW7       30.41R WCI  10
MIDLAND        FAIR      19  12  73 W3        30.40S
TROY           MOCLDY    24  14  67 SW8       30.45R WCI  15
SAGINAW HB     PTCLDY    21  14  73 SW5       30.41R WCI  15
$$
MIZ043>046-050>051-056>058-064>065-071>073-077>080-101400-
SOUTHWEST LOWER MICHIGAN

CITY           SKY/WX    TMP DP  RH WIND       PRES   REMARKS
BATTLE CREEK   LGT SNOW  21  18  88 SW13      30.44R FOG     WCI   9
BENTON HARBOR  LGT SNOW  25  19  78 W17       30.47S WCI  12
BIG RAPIDS     LGT SNOW  19  16  88 CALM      30.37S
COLDWATER      LGT SNOW  19  17  89 SW6       30.45S WCI  11
FREMONT        LGT SNOW  22  17  81 W10       30.41R WCI  11
HOLLAND        FLURRIES  26  18  71 W10       30.43S WCI  16
GRAND RAPIDS   LGT SNOW  22  19  89 SW7       30.42S FOG     WCI  13
IONIA          LGT SNOW  20  19  93 S5        30.41S WCI  14
KALAMAZOO      LGT SNOW  21  17  84 SW10      30.45R FOG     WCI  10
LUDINGTON      CLOUDY    22  13  67 W7G16     30.40S WCI  14
MARSHALL       LGT SNOW  19  17  90 SW9       30.43S WCI   8
MOUNT PLEASANT PTCLDY    17  11  78 SW5       30.39S WCI  10
MUSKEGON       FLURRIES  24  16  71 W18       30.43R WCI  10
SOUTH HAVEN    LGT SNOW  26  21  83 W9G18     30.45S WCI  16
$$
MIZ016>042-101400-
NORTHERN LOWER MICHIGAN

CITY           SKY/WX    TMP DP  RH WIND       PRES   REMARKS
ALPENA         LGT SNOW  22  19  89 W5        30.34S FOG     WCI  16
BEAVER ISLAND  CLOUDY    19  11  70 W10G20    30.34S WCI   7
BELLAIRE       LGT SNOW  21  17  85 CALM      30.36S
CADILLAC       CLOUDY    17  11  79 W7        30.32S WCI   7
CHARLEVOIX     LGT SNOW  22  16  78 W20G25    30.37S WCI   6
FRANKFORT      CLOUDY    23  13  65 W12       30.38S WCI  12
GAYLORD        CLOUDY    17  12  80 W6        30.29S WCI   9
GRAYLING       CLOUDY    17  14  87 SW5       30.33S WCI  10
HARBOR SPRINGS LGT SNOW  20  16  81 W9        30.33S WCI  10
HOUGHTON LAKE  FLURRIES  18  14  84 W12       30.34S WCI   5
MANISTEE       FLURRIES  21  11  65 W16       30.39S WCI   7
OSCODA         PTCLDY    20  11  67 MISG      30.35S
PELLSTON       CLOUDY    20  10  65 W8        30.33S WCI  10
ROGERS CITY    CLOUDY    21  16  79 SW6       30.34S WCI  14
TRAVERSE CITY  LGT SNOW  20  17  88 SW6       30.36S VSB 3/4 WCI  12
$$
MIZ007>008-015-101400-
EASTERN UPPER MICHIGAN

CITY           SKY/WX    TMP DP  RH WIND       PRES   REMARKS
KINROSS        CLOUDY    10   8  92 SW5       30.30S WCI   2
MACKINAC ISLAN CLOUDY    19  14  79 W10       30.31S WCI   8
NEWBERRY       CLEAR      7   4  87 SW12      30.29F WCI  -9
S. S. MARIE    CLOUDY    15  10  80 CALM      30.30R
MUNISING         N/A     11   3  70 W9        30.33S WCI  -2
$$
MIZ004>006-011>014-085-101400-
CENTRAL UPPER MICHIGAN

CITY           SKY/WX    TMP DP  RH WIND       PRES   REMARKS
MANISTIQUE     CLEAR      8   3  79 W9        30.34S WCI  -5
ESCANABA       CLEAR     10   2  69 W10       30.39S WCI  -4
MENOMINEE      PTCLDY    13   3  64 NW6       30.43R WCI   4
SAWYER-GWINN   CLEAR      5   1  85 W10       30.31S WCI -10
$$
MIZ001>003-009>011-084-101400-
WESTERN UPPER MICHIGAN

CITY           SKY/WX    TMP DP  RH WIND       PRES   REMARKS
IRON MOUNTAIN  CLEAR      7  -3  64 W10       30.35S WCI  -8
HOUGHTON       LGT SNOW  15   9  76 NW14G25   30.31S WCI   0
COPPER HARBOR    N/A     19  16  88 N13G23    30.33S WCI   6
IRONWOOD       LGT SNOW   5   1  85 W14       30.41R FOG     WCI -12
$$

ABBREVIATIONS USED IN REMARKS
   TC - TEMPERATURE IN CELSIUS
  WCI - WIND CHILL INDEX
   HX - HEAT INDEX
  VSB - VISIBILITY





USA.gov is the U.S. government's official web portal to all federal, state and local government web resources and services.